Weather History for KCTB - October, 2012

Change the Weather History Date:

Monday, October 8, 2012

  Actual Average Record
Temperature  
Mean Temperature 42 °F 46 °F  
Max Temperature 48 °F 59 °F 83 °F (1984)
Min Temperature 35 °F 33 °F 6 °F (1985)
Degree Days  
Heating Degree Days 23 19  
Month to date heating degree days 192 143  
Since 1 July heating degree days 515 680  
Cooling Degree Days 0 0  
Month to date cooling degree days 0 0  
Year to date cooling degree days 210 161  
Moisture  
Dew Point 38 °F    
Average Humidity 78    
Maximum Humidity 100    
Minimum Humidity 56    
Precipitation  
Precipitation 0.06 in 0.02 in 1.40 in (1923)
Month to date precipitation 0.52 0.17  
Year to date precipitation 7.63 10.05  
Snow  
Snow 0.00 in - - ()
Snow Depth 0.00 in    
Sea Level Pressure  
Sea Level Pressure 30.01 in    
Wind  
Wind Speed 9 mph (NNW)    
Max Wind Speed 18 mph    
Max Gust Speed 23 mph    
Visibility 9 miles    
Events Rain    
T = Trace of Precipitation, MM = Missing Value Source: NWS Daily Summary

Daily Weather History Graph

Daily Weather History Graph

Search for Another Location

Airport or City:

Trip Planner

Search our weather history database for the weather conditions in past years. The results will help you decide how hot, cold, wet, or windy it might be!

Date:

Astronomy

Oct. 08, 2012 Rise Set
Actual Time 7:39 AM MDT 6:52 PM MDT
Civil Twilight 7:08 AM MDT 7:24 PM MDT
Nautical Twilight 6:32 AM MDT 8:00 PM MDT
Astronomical Twilight 5:55 AM MDT 8:37 PM MDT
Moon No Moon Rise 3:14 PM MDT (10/8)
Length of Visible Light 12h 15m
Length of Day
11h 12m
Last Quarter, 46% of the Moon is Illuminated
Oct 8
Last Quarter
Oct 15
New
Oct 21
First Quarter
Oct 29
Full
Nov 6
Last Quarter

Hourly Weather History & Observations

Time (MDT) Temp. Windchill Dew Point Humidity Pressure Visibility Wind Dir Wind Speed Gust Speed Precip Events Conditions
12:56 AM 48.0 °F - 33.1 °F 56% 29.91 in 10.0 mi WNW 9.2 mph - N/A   Overcast
1:56 AM 46.9 °F - 35.1 °F 63% 29.92 in 10.0 mi NW 11.5 mph - N/A   Overcast
2:56 AM 46.9 °F - 39.9 °F 77% 29.94 in 10.0 mi NNW 13.8 mph - N/A   Overcast
3:56 AM 45.0 °F 38.9 °F 42.1 °F 90% 29.96 in 10.0 mi North 12.7 mph - 0.00 in Rain Light Rain
4:56 AM 44.1 °F 40.1 °F 43.0 °F 96% 29.97 in 10.0 mi NW 6.9 mph - 0.00 in   Overcast
5:33 AM 44.6 °F 39.2 °F 42.8 °F 93% 29.99 in 10.0 mi NW 10.4 mph - N/A   Overcast
5:54 AM 44.6 °F 41.4 °F 42.8 °F 93% 29.99 in 10.0 mi NW 5.8 mph - N/A   Overcast
5:56 AM 44.1 °F 40.1 °F 42.1 °F 93% 29.98 in 10.0 mi NW 6.9 mph - N/A   Overcast
6:12 AM 44.6 °F 40.2 °F 42.8 °F 93% 29.99 in 10.0 mi NNW 8.1 mph - N/A   Overcast
6:56 AM 43.0 °F 38.2 °F 42.1 °F 97% 29.99 in 10.0 mi NW 8.1 mph - 0.00 in Rain Light Rain
7:14 AM 42.8 °F 38.0 °F 42.8 °F 100% 29.98 in 10.0 mi NNW 8.1 mph - 0.00 in Rain Light Rain
7:37 AM 42.8 °F 37.0 °F 42.8 °F 100% 29.99 in 9.0 mi NNW 10.4 mph - 0.00 in Rain Light Rain
7:40 AM 42.8 °F 37.5 °F 42.8 °F 100% 29.99 in 8.0 mi North 9.2 mph - 0.00 in Rain Light Rain
7:56 AM 43.0 °F 37.2 °F 42.1 °F 97% 30.01 in 7.0 mi North 10.4 mph - 0.00 in Rain Light Rain
8:12 AM 42.8 °F 35.4 °F 39.2 °F 87% 29.99 in 6.0 mi North 15.0 mph 21.9 mph 0.00 in Rain Light Rain
8:56 AM 41.0 °F 34.7 °F 39.0 °F 93% 30.03 in 9.0 mi North 10.4 mph - 0.00 in Rain Light Rain
9:56 AM 41.0 °F 35.2 °F 39.0 °F 93% 30.01 in 10.0 mi NNW 9.2 mph - 0.01 in Rain Light Rain
10:28 AM 41.0 °F 37.1 °F 39.2 °F 93% 30.00 in 10.0 mi NW 5.8 mph - 0.00 in   Overcast
10:56 AM 42.1 °F 37.1 °F 39.9 °F 92% 30.01 in 10.0 mi NW 8.1 mph - 0.00 in Rain Light Rain
11:03 AM 42.8 °F 38.0 °F 41.0 °F 93% 29.99 in 10.0 mi NW 8.1 mph - 0.00 in   Overcast
11:16 AM 42.8 °F 38.6 °F 39.2 °F 87% 29.99 in 10.0 mi NW 6.9 mph - 0.00 in   Overcast
11:31 AM 42.8 °F 37.0 °F 39.2 °F 87% 29.99 in 10.0 mi NW 10.4 mph - 0.00 in Rain Light Rain
11:38 AM 42.8 °F 38.0 °F 39.2 °F 87% 29.99 in 10.0 mi NNE 8.1 mph - 0.00 in Rain Light Rain
11:56 AM 42.1 °F 38.4 °F 39.9 °F 92% 30.00 in 10.0 mi NE 5.8 mph - 0.00 in Rain Light Rain
12:25 PM 42.8 °F 40.1 °F 39.2 °F 87% 29.99 in 10.0 mi NNE 4.6 mph - 0.00 in Rain Light Rain
12:56 PM 42.1 °F 40.2 °F 39.9 °F 92% 30.01 in 10.0 mi North 3.5 mph - 0.00 in Rain Light Rain
1:14 PM 42.8 °F 40.1 °F 39.2 °F 87% 29.99 in 9.0 mi North 4.6 mph - 0.00 in Rain Light Rain
1:24 PM 42.8 °F 41.1 °F 39.2 °F 87% 29.99 in 9.0 mi North 3.5 mph - N/A Rain Light Rain
1:46 PM 42.8 °F 39.3 °F 39.2 °F 87% 29.99 in 3.0 mi North 5.8 mph - 0.00 in Rain Light Rain
1:56 PM 41.0 °F 34.3 °F 39.2 °F 93% 29.99 in 4.0 mi NNE 11.5 mph - N/A Rain Rain
2:20 PM 39.2 °F 30.5 °F 37.4 °F 93% 29.99 in 5.0 mi North 16.1 mph - 0.02 in Rain Light Rain
2:32 PM 39.2 °F 31.2 °F 37.4 °F 93% 30.00 in 7.0 mi NNE 13.8 mph - 0.02 in Rain Light Rain
2:56 PM 39.0 °F 31.0 °F 36.0 °F 89% 30.03 in 10.0 mi NNE 13.8 mph - 0.02 in Rain Light Rain
3:18 PM 37.4 °F 28.2 °F 35.6 °F 93% 30.01 in 9.0 mi NNE 16.1 mph - 0.00 in Rain Light Rain
3:43 PM 37.4 °F 28.9 °F 35.6 °F 93% 30.02 in 10.0 mi North 13.8 mph - 0.00 in Rain Light Rain
3:56 PM 37.0 °F 29.3 °F 35.1 °F 93% 30.07 in 9.0 mi North 11.5 mph - 0.01 in Rain Light Rain
4:25 PM 37.4 °F 30.3 °F 35.6 °F 93% 30.02 in 10.0 mi North 10.4 mph - 0.00 in   Overcast
4:56 PM 37.0 °F 29.3 °F 35.1 °F 93% 30.07 in 10.0 mi North 11.5 mph - 0.00 in   Overcast
5:05 PM 37.4 °F 30.3 °F 35.6 °F 93% 30.03 in 10.0 mi North 10.4 mph - N/A   Overcast
5:16 PM 37.4 °F 30.8 °F 35.6 °F 93% 30.03 in 10.0 mi North 9.2 mph - N/A   Overcast
5:56 PM 36.0 °F 29.6 °F 35.1 °F 97% 30.10 in 7.0 mi NNW 8.1 mph - 0.00 in Rain Light Rain
6:56 PM 36.0 °F 29.6 °F 35.1 °F 97% 30.11 in 10.0 mi West 8.1 mph - 0.01 in   Overcast
7:56 PM 35.6 °F 29.2 °F 35.6 °F 100% 30.07 in 10.0 mi WNW 8.1 mph - N/A   Overcast
8:56 PM 37.0 °F 30.4 °F 34.0 °F 89% 30.14 in 10.0 mi NW 9.2 mph - N/A   Overcast
9:56 PM 37.0 °F 30.4 °F 34.0 °F 89% 30.14 in 10.0 mi WNW 9.2 mph - N/A   Overcast
10:56 PM 37.0 °F 30.4 °F 34.0 °F 89% 30.13 in 10.0 mi WNW 9.2 mph - N/A   Overcast
11:56 PM 37.0 °F 31.6 °F 34.0 °F 89% 30.13 in 10.0 mi WNW 6.9 mph - N/A   Overcast